User: anonymous   Login
Location: Trois-Rivi�res
(46.3500°N, 72.5500°W)
Time: 20:16:22
(UTC-04:00)
Language:

Cosmos 1544 - Orbit

View from above orbital plane
View from above orbital plane
View from above satellite
View from above satellite

Ground track
Ground track

The orbit data is extracted from the following two-line orbital elements,

1 14819U 84027A   17080.59532781 +.00001189 +00000-0 +45402-4 0  9998
2 14819 082.4824 115.7909 0014214 355.9537 004.1583 15.25534536802228
Epoch (UTC): 21 March 2017 14:17:16
Eccentricity: 0.0014214
inclination: 82.4824°
perigee height: 479 km
apogee height: 499 km
right ascension of ascending node: 115.7909°
argument of perigee: 355.9537°
revolutions per day: 15.25534536
mean anomaly at epoch: 4.1583°
orbit number at epoch: 80222

The dashed part of the orbit path shows where the satellite is in the earth's shadow,  

DLR